Other Public Products
Issued by NWS Grand Forks, ND

Home | Current Version | Previous Version | Text Only | Print | Product List | Glossary Off
Versions: 1 2 3 4 5 6 7 8 9 10 11 12 13 14 15 16 17 18 19 20 21 22 23 24 25 26 27 28 29 30 31 32 33 34 35 36 37 38 39 40 41 42 43 44 45 46 47 48 49 50

000
FPUS83 KFGF 271010
OPUFGF
PRAIRIE TO PINES WEATHER ROUNDUP
NATIONAL WEATHER SERVICE EASTERN NORTH DAKOTA/GRAND FORKS ND
400 AM CST THU NOV 27 2014

 **SATELLITE DATA USED TO AUGMENT SKY COVER AT AUTOMATED STATIONS**
 *****  WEATHER ACROSS EASTERN NORTH DAKOTA  *****

CITY           SKY/WX    TMP DP  RH WIND       PRES   REMARKS
GRAND FORKS    PTCLDY   -15 -20  78 SW3       30.54F
GRAND FORKS AF PTCLDY   -14 -20  76 SW2       30.53F
GRAND CITY NWS   N/A    -11 N/A N/A MISG        N/A
BUXTON         NOT AVBL
DEVILS LAKE    MOCLDY    -4 -15  59 S3        30.43S
FARGO          PTCLDY   -11 -19  68 CALM      30.55F
WAHPETON ARPT  FAIR     -13 -18  77 W6        30.56R WCI -27
$$

 *****  WEATHER ACROSS CENTRAL AND WESTERN NORTH DAKOTA  *****

CITY           SKY/WX    TMP DP  RH WIND       PRES   REMARKS
JAMESTOWN      CLOUDY   -26 -30  81 CALM      30.46F
BISMARCK       CLOUDY    -9 -13  83 NE7       30.43F WCI -24
MINOT          CLOUDY   -11 -16  78 SE3       30.36F
MINOT AFB      CLOUDY    -6  -9  84 S5        30.37F WCI -17
GARRISON         N/A      8   5  87 S13       30.35F WCI  -8
WILLISTON      PTCLDY     2  -1  88 CALM      30.26F
DICKINSON      CLOUDY    11   8  88 S15       30.22F WCI  -5
HETTINGER      CLOUDY    11   8  88 SE7       30.27F WCI   0
$$

 *****  OTHER OBSERVATIONS NORTHEAST NORTH DAKOTA  *****

CITY           SKY/WX    TMP DP  RH WIND       PRES   REMARKS
WALHALLA         N/A    -13 -18  77 S3        30.50F
LANGDON        FAIR     -18 -22  83 SW6       30.41F WCI -33
CAVALIER       FAIR     -17 -20  83 CALM      30.51F
GRAFTON        FAIR     -13 -18  77 SW5       30.54S WCI -25
CANDO          FAIR     -17 -20  83 SW3       30.45S
FORT TOTTEN      N/A    -12 -18  74 SE5       29.95S WCI -24
ROLLA          FAIR     -13 -18  77 S6        30.39F WCI -27
RUGBY          FAIR     -18 -22  83 SE5       30.42F WCI -31
 ***** THE ABOVE OBSERVATIONS ARE NON NWS ARE NOT QUALITY
        CONTROLLED AND MAY MIS-REPORT RAIN FOR SNOW...
$$

 *****  OTHER OBSERVATIONS SOUTHEAST NORTH DAKOTA *****

CITY           SKY/WX    TMP DP  RH WIND       PRES   REMARKS
COOPERSTOWN    NOT AVBL
VALLEY CITY    FAIR     -17 -20  83 CALM      30.49F
OAKES            N/A    -17 -20  83 CALM      30.51S
GWINNER        SUNNY    -15 -22  70 W5        30.52F WCI -27
SHEYENNE NWR     N/A    -19 -27  66 W2        29.95S
BUFFALO        NOT AVBL
WYNDMERE         N/A    -17 -20  83 SW3         N/A
 ***** THE ABOVE OBSERVATIONS ARE NON NWS ARE NOT QUALITY
       CONTROLLED AND MAY MIS-REPORT RAIN FOR SNOW...
$$

  *****  WEATHER ACROSS NORTHERN MINNESOTA  *****

CITY           SKY/WX    TMP DP  RH WIND       PRES   REMARKS
FLAG ISLAND    PTCLDY   -15 -18  84 NW6       30.48S WCI -29
WARROAD        PTCLDY   -15 -18  84 W3        30.49S
ROSEAU         PTCLDY   -13 -18  77 CALM      30.50F
HALLOCK        PTCLDY   -15 -20  76 SE3       30.52F
THF RVR FALLS  MOCLDY   -11 -15  84 CALM      30.49F
HALSTAD          N/A    -14 -18  80 CALM        N/A
FOSSTON        MOCLDY   -18 -24  76 CALM      30.49F
BAUDETTE       PTCLDY   -14 -18  82 VRB3      30.46F
WASKISH        MOCLDY    -9 -15  77 CALM      30.47F
CROOKSTON      PTCLDY   -13 -17  84 CALM      30.55S
$$
  *****  WEATHER ACROSS CENTRAL AND WEST MINNESOTA  *****

CITY           SKY/WX    TMP DP  RH WIND       PRES   REMARKS
BEMIDJI        PTCLDY   -15 -20  79 W3        30.45F
PARK RAPIDS    PTCLDY   -13 -17  82 NW5       30.45F WCI -25
WADENA         CLEAR     -9 -15  77 N3        30.46S
DETROIT LAKES  PTCLDY    -9 -15  77 CALM      30.48S
MOORHEAD       FAIR     -11 -13  92 CALM      30.55S
FERGUS FALLS   PTCLDY    -9 -15  77 CALM      30.55S
ELBOW LAKE     FAIR      -9 -13  83 CALM      30.49F
MORRIS MN      PTCLDY   -11 -15  84 W6        30.51R WCI -25
STAPLES        FAIR      -9 -13  84 N3        30.47S
WHEATON        MOCLDY    -9 -13  84 NW3       30.56F
$$
  *****  WEATHER ELSEWHERE ACROSS MINNESOTA  *****

CITY           SKY/WX    TMP DP  RH WIND       PRES   REMARKS
DULUTH         CLEAR     -7 -12  79 NW6       30.39R WCI -20
INTRNTL FALLS  MOCLDY   -15 -21  74 CALM      30.46R
ELY            CLEAR    -11 -17  77 CALM      30.38S
CLOQUET        CLEAR     -6 -11  77 NW7       30.42R WCI -20
BRAINERD       CLEAR     -6 -10  83 NW7       30.47S WCI -20
HIBBING        PTCLDY    -7 -13  75 N8        30.42R WCI -23
ALEXANDRIA     PTCLDY    -5 -10  79 NW3       30.47R
SAINT CLOUD    CLEAR     -2  -9  72 NW8       30.48S WCI -17
MINNEAPOLIS    CLEAR      2  -5  72 N13       30.47R WCI -15
$$

  *****  WEATHER ACROSS SOUTH DAKOTA  *****

CITY           SKY/WX    TMP DP  RH WIND       PRES   REMARKS
SIOUX FALLS    PTCLDY    -2  -8  76 W3        30.50R
BROOKINGS      NOT AVBL
WATERTOWN      PTCLDY   -12 -16  82 CALM      30.45F
HURON          PTCLDY    -5 -10  79 CALM      30.52F
SISSETON         N/A    -12 -16  82 NW5       30.53S WCI -24
ABERDEEN       PTCLDY   -10 -16  74 N3        30.52F
MITCHELL       PTCLDY     2  -2  83 NE5       30.52F WCI  -8
PIERRE         CLOUDY    10   7  87 E10       30.40F WCI  -4
MOBRIDGE       CLOUDY     2  -2  83 E8        30.40S WCI -12
RAPID CITY     CLOUDY    20  18  92 SE7       30.20F WCI  11
$$

  *****  SOME WEATHER IN NEARBY STATES *****

CITY           SKY/WX    TMP DP  RH WIND       PRES   REMARKS
GLASGOW MT     LGT SNOW  18  13  80 E17       30.11F WCI   3
GREAT FALLS MT CLOUDY    40  32  73 SW16      29.90F
CHEYENNE WY    MOCLDY    43  22  43 W23G31    30.20F
SCOTTSBLUFF NE MOCLDY    14  12  92 NW5       30.21F WCI   6
OMAHA NE       PTCLDY    15  11  83 N5        30.52S WCI   8
DES MOINES IA  FLURRIES  16   9  74 NW15      30.46R WCI   1
DAVENPORT IA   CLOUDY    24  19  81 NW10      30.34R WCI  14
CHICAGO IL     CLOUDY    23  17  78 NW10      30.23R WCI  12
EAU CLAIRE WI  PTCLDY     6  -2  69 NW13      30.39R WCI -10
LA CROSSE WI   CLOUDY    20  13  74 N12       30.36R WCI   8
$$

  *****  SOME NATIONAL WEATHER *****

CITY           SKY/WX    TMP DP  RH WIND       PRES   REMARKS
LA GUARDIA NY  CLOUDY    36  30  79 NW8       29.94R
RALEIGH NC     MOCLDY    41  38  89 E6        30.01F
ATLANTA GA     PTCLDY    42  28  57 W10       30.13R
NEW ORLEANS LA CLEAR     53  46  77 NW8       30.33R
OKLAHOMA CITY  CLEAR     33  23  66 N8        30.49F
ALBUQUERQUE NM PTCLDY    38  23  55 E3        30.45R
SALT LAKE CITY PTCLDY    45  27  49 SE17      30.32S
LOS ANGELES CA CLEAR     63  28  26 NE5       30.11S
BOISE ID       CLOUDY    43  37  79 CALM      30.17R
SEATTLE WA     CLOUDY    57  43  59 S20G33    29.87S
$$

*** WEATHER ACROSS MANITOBA...SASKATCHEWAN AND ONTARIO ***
                ***ONTARIO***

CITY           SKY/WX    TMP DP  RH WIND       PRES   REMARKS
GERALDTON      CLEAR    -18 -26  69 NW3       30.33R
THUNDER BAY    CLEAR     -9 -15  77 W5        30.43S WCI -21
SIOUX LOOKOUT  CLEAR    -15 -20  76 N3        30.40F
TORONTO        CLOUDY    30  21  69 N2        30.04F
BIG TROUT LK   PTCLDY   -22 -26  83 SW6       30.34F WCI -38
PICKLE LAKE    NOT AVBL
DRYDEN         CLEAR    -17 -20  83 W6        30.41R WCI -31
KENORA         CLEAR    -13 -18  77 W6        30.44S WCI -27
$$
                *** MANITOBA***

CITY           SKY/WX    TMP DP  RH WIND       PRES   REMARKS
BRANDON        CLEAR    -17 -22  76 SW8       30.42F WCI -34
DAUPHIN        CLEAR     -9 -15  77 W6        30.40F WCI -23
ISLAND LAKE    CLEAR    -17 -22  76 SW3       30.37F
PILOT MOUND      N/A    -18 -24  76 S5          N/A  WCI -31
THE PAS        CLEAR    -15 -20  76 S6        30.30F WCI -29
THOMPSON       MOCLDY   -17 -22  76 SW8       30.23F WCI -34
WINNIPEG       CRYSTALS -15 -22  70 S3        30.51F
LYNN LAKE      FLURRIES  -2  -8  78 W8        30.12F WCI -17
CHURCHILL      PTCLDY    -4  -9  77 W14G20    30.08F WCI -24
GILLAM         CLEAR    -17 -22  76 SW8       30.21F WCI -34
$$
                ***SASKATCHEWAN***

CITY           SKY/WX    TMP DP  RH WIND       PRES   REMARKS
ESTEVAN        PTCLDY   -13 -18  77 E5        30.29  WCI -25
KINDERSLEY     CLOUDY    10   9  92 E10       30.06F WCI  -3
LLOYDMINSTER   CLOUDY    12  10  92 E9        30.07F WCI   0
PRINCE ALBERT  FLURRIES  -4  -8  84 S5        30.21F WCI -15
REGINA         FLURRIES   7   3  85 SE13      30.23F WCI  -9



USA.gov is the U.S. government's official web portal to all federal, state and local government web resources and services.